Year,Month,Day,Hour,Minute,Value (Times are PST for temperature in C)
2006,05,03,00,00,5.20
2006,05,03,00,01,5.20
2006,05,03,00,02,5.20
2006,05,03,00,03,5.10
2006,05,03,00,04,5.10
2006,05,03,00,05,5.10
2006,05,03,00,06,5.10
2006,05,03,00,07,5.10
2006,05,03,00,08,5.10
2006,05,03,00,09,5.10
2006,05,03,00,10,5.00
2006,05,03,00,11,4.90
2006,05,03,00,12,4.90
2006,05,03,00,13,4.90
2006,05,03,00,14,4.90
2006,05,03,00,15,4.90
2006,05,03,00,16,4.90
2006,05,03,00,17,4.90
2006,05,03,00,18,4.90
2006,05,03,00,19,4.90
2006,05,03,00,20,4.80
2006,05,03,00,21,4.80
2006,05,03,00,22,4.80
2006,05,03,00,23,4.80
2006,05,03,00,24,4.70
2006,05,03,00,25,4.70
2006,05,03,00,26,4.70
2006,05,03,00,27,4.60
2006,05,03,00,28,4.60
2006,05,03,00,29,4.60
2006,05,03,00,30,4.60
2006,05,03,00,31,4.60
2006,05,03,00,32,4.60
2006,05,03,00,33,4.60
2006,05,03,00,34,4.60
2006,05,03,00,35,4.60
2006,05,03,00,36,4.50
2006,05,03,00,37,4.50
2006,05,03,00,38,4.50
2006,05,03,00,39,4.50
2006,05,03,00,40,4.50
2006,05,03,00,41,4.50
2006,05,03,00,42,4.40
2006,05,03,00,43,4.40
2006,05,03,00,44,4.40
2006,05,03,00,45,4.40
2006,05,03,00,46,4.40
2006,05,03,00,47,4.40
2006,05,03,00,48,4.40
2006,05,03,00,49,4.40
2006,05,03,00,50,4.40
2006,05,03,00,51,4.40
2006,05,03,00,52,4.30
2006,05,03,00,53,4.30
2006,05,03,00,54,4.30
2006,05,03,00,55,4.30
2006,05,03,00,56,4.30
2006,05,03,00,57,4.30
2006,05,03,00,58,4.30
2006,05,03,00,59,4.30
2006,05,03,01,00,4.20
2006,05,03,01,01,4.20
2006,05,03,01,02,4.20
2006,05,03,01,03,4.20
2006,05,03,01,04,4.20
2006,05,03,01,05,4.20
2006,05,03,01,06,4.20
2006,05,03,01,07,4.20
2006,05,03,01,08,4.20
2006,05,03,01,09,4.20
2006,05,03,01,10,4.20
2006,05,03,01,11,4.20
2006,05,03,01,12,4.20
2006,05,03,01,13,4.10
2006,05,03,01,14,4.10
2006,05,03,01,15,4.10
2006,05,03,01,16,4.10
2006,05,03,01,17,4.10
2006,05,03,01,18,4.10
2006,05,03,01,19,4.10
2006,05,03,01,20,4.10
2006,05,03,01,21,4.00
2006,05,03,01,22,4.00
2006,05,03,01,23,4.00
2006,05,03,01,24,4.00
2006,05,03,01,25,4.00
2006,05,03,01,26,4.00
2006,05,03,01,27,3.90
2006,05,03,01,28,3.90
2006,05,03,01,29,3.90
2006,05,03,01,30,3.90
2006,05,03,01,31,3.90
2006,05,03,01,32,3.80
2006,05,03,01,33,3.80
2006,05,03,01,34,3.80
2006,05,03,01,35,3.80
2006,05,03,01,36,3.80
2006,05,03,01,37,3.80
2006,05,03,01,38,3.80
2006,05,03,01,39,3.70
2006,05,03,01,40,3.70
2006,05,03,01,41,3.70
2006,05,03,01,42,3.70
2006,05,03,01,43,3.70
2006,05,03,01,44,3.60
2006,05,03,01,45,3.60
2006,05,03,01,46,3.60
2006,05,03,01,47,3.60
2006,05,03,01,48,3.60
2006,05,03,01,49,3.50
2006,05,03,01,50,3.50
2006,05,03,01,51,3.50
2006,05,03,01,52,3.50
2006,05,03,01,53,3.50
2006,05,03,01,54,3.50
2006,05,03,01,55,3.40
2006,05,03,01,56,3.40
2006,05,03,01,57,3.40
2006,05,03,01,58,3.40
2006,05,03,01,59,3.40
2006,05,03,02,00,3.30
2006,05,03,02,01,3.30
2006,05,03,02,02,3.30
2006,05,03,02,03,3.30
2006,05,03,02,04,3.30
2006,05,03,02,05,3.30
2006,05,03,02,06,3.30
2006,05,03,02,07,3.30
2006,05,03,02,08,3.30
2006,05,03,02,09,3.30
2006,05,03,02,10,3.30
2006,05,03,02,11,3.30
2006,05,03,02,12,3.30
2006,05,03,02,13,3.30
2006,05,03,02,14,3.20
2006,05,03,02,15,3.20
2006,05,03,02,16,3.20
2006,05,03,02,17,3.20
2006,05,03,02,18,3.20
2006,05,03,02,19,3.20
2006,05,03,02,20,3.20
2006,05,03,02,21,3.20
2006,05,03,02,22,3.10
2006,05,03,02,23,3.10
2006,05,03,02,24,3.10
2006,05,03,02,25,3.10
2006,05,03,02,26,3.10
2006,05,03,02,27,3.10
2006,05,03,02,28,3.10
2006,05,03,02,29,3.10
2006,05,03,02,30,3.10
2006,05,03,02,31,3.10
2006,05,03,02,32,3.10
2006,05,03,02,33,3.10
2006,05,03,02,34,3.10
2006,05,03,02,35,3.10
2006,05,03,02,36,3.10
2006,05,03,02,37,3.10
2006,05,03,02,38,3.10
2006,05,03,02,39,3.10
2006,05,03,02,40,3.10
2006,05,03,02,41,3.10
2006,05,03,02,42,3.10
2006,05,03,02,43,3.10
2006,05,03,02,44,3.10
2006,05,03,02,45,3.10
2006,05,03,02,46,3.10
2006,05,03,02,47,3.10
2006,05,03,02,48,3.10
2006,05,03,02,49,3.10
2006,05,03,02,50,3.10
2006,05,03,02,51,3.10
2006,05,03,02,52,3.10
2006,05,03,02,53,2.90
2006,05,03,02,54,2.90
2006,05,03,02,55,2.90
2006,05,03,02,56,2.90
2006,05,03,02,57,2.90
2006,05,03,02,58,2.90
2006,05,03,02,59,2.80
2006,05,03,03,00,2.80
2006,05,03,03,01,2.80
2006,05,03,03,02,2.80
2006,05,03,03,03,2.80
2006,05,03,03,04,2.70
2006,05,03,03,05,2.70
2006,05,03,03,06,2.70
2006,05,03,03,07,2.70
2006,05,03,03,08,2.70
2006,05,03,03,09,2.70
2006,05,03,03,10,2.70
2006,05,03,03,11,2.70
2006,05,03,03,12,2.70
2006,05,03,03,13,2.70
2006,05,03,03,14,2.60
2006,05,03,03,15,2.60
2006,05,03,03,16,2.60
2006,05,03,03,17,2.60
2006,05,03,03,18,2.60
2006,05,03,03,19,2.50
2006,05,03,03,20,2.50
2006,05,03,03,21,2.50
2006,05,03,03,22,2.50
2006,05,03,03,23,2.50
2006,05,03,03,24,2.50
2006,05,03,03,25,2.50
2006,05,03,03,26,2.50
2006,05,03,03,27,2.50
2006,05,03,03,28,2.50
2006,05,03,03,29,2.40
2006,05,03,03,30,2.40
2006,05,03,03,31,2.40
2006,05,03,03,32,2.40
2006,05,03,03,33,2.40
2006,05,03,03,34,2.40
2006,05,03,03,35,2.40
2006,05,03,03,36,2.30
2006,05,03,03,37,2.30
2006,05,03,03,38,2.30
2006,05,03,03,39,2.30
2006,05,03,03,40,2.30
2006,05,03,03,41,2.30
2006,05,03,03,42,2.20
2006,05,03,03,43,2.20
2006,05,03,03,44,2.20
2006,05,03,03,45,2.20
2006,05,03,03,46,2.20
2006,05,03,03,47,2.20
2006,05,03,03,48,2.20
2006,05,03,03,49,2.20
2006,05,03,03,50,2.20
2006,05,03,03,51,2.20
2006,05,03,03,52,2.20
2006,05,03,03,53,2.20
2006,05,03,03,54,2.20
2006,05,03,03,55,2.20
2006,05,03,03,56,2.20
2006,05,03,03,57,2.20
2006,05,03,03,58,2.20
2006,05,03,03,59,2.10
2006,05,03,04,00,2.10
2006,05,03,04,01,2.10
2006,05,03,04,02,2.10
2006,05,03,04,03,2.10
2006,05,03,04,04,2.10
2006,05,03,04,05,2.10
2006,05,03,04,06,2.10
2006,05,03,04,07,2.10
2006,05,03,04,08,2.10
2006,05,03,04,09,2.10
2006,05,03,04,10,2.10
2006,05,03,04,11,2.10
2006,05,03,04,12,2.10
2006,05,03,04,13,2.10
2006,05,03,04,14,2.10
2006,05,03,04,15,2.10
2006,05,03,04,16,2.10
2006,05,03,04,17,2.10
2006,05,03,04,18,2.10
2006,05,03,04,19,2.10
2006,05,03,04,20,2.10
2006,05,03,04,21,2.10
2006,05,03,04,22,2.10
2006,05,03,04,23,2.10
2006,05,03,04,24,2.10
2006,05,03,04,25,2.10
2006,05,03,04,26,2.00
2006,05,03,04,27,2.00
2006,05,03,04,28,2.00
2006,05,03,04,29,2.00
2006,05,03,04,30,2.00
2006,05,03,04,31,2.00
2006,05,03,04,32,2.00
2006,05,03,04,33,2.00
2006,05,03,04,34,1.90
2006,05,03,04,35,1.90
2006,05,03,04,36,1.90
2006,05,03,04,37,1.90
2006,05,03,04,38,1.90
2006,05,03,04,39,1.90
2006,05,03,04,40,1.90
2006,05,03,04,41,1.80
2006,05,03,04,42,1.80
2006,05,03,04,43,1.80
2006,05,03,04,44,1.80
2006,05,03,04,45,1.80
2006,05,03,04,46,1.80
2006,05,03,04,47,1.80
2006,05,03,04,48,1.80
2006,05,03,04,49,1.80
2006,05,03,04,50,1.80
2006,05,03,04,51,1.80
2006,05,03,04,52,1.80
2006,05,03,04,53,1.80
2006,05,03,04,54,1.80
2006,05,03,04,55,1.80
2006,05,03,04,56,1.80
2006,05,03,04,57,1.80
2006,05,03,04,58,1.80
2006,05,03,04,59,1.80
2006,05,03,05,00,1.80
2006,05,03,05,01,1.80
2006,05,03,05,02,1.80
2006,05,03,05,03,1.80
2006,05,03,05,04,1.80
2006,05,03,05,05,1.80
2006,05,03,05,06,1.80
2006,05,03,05,07,1.80
2006,05,03,05,08,1.80
2006,05,03,05,09,1.80
2006,05,03,05,10,1.80
2006,05,03,05,11,1.80
2006,05,03,05,12,1.80
2006,05,03,05,13,1.80
2006,05,03,05,14,1.80
2006,05,03,05,15,1.80
2006,05,03,05,16,1.80
2006,05,03,05,17,1.80
2006,05,03,05,18,1.80
2006,05,03,05,19,1.80
2006,05,03,05,20,1.80
2006,05,03,05,21,1.70
2006,05,03,05,22,1.70
2006,05,03,05,23,1.70
2006,05,03,05,24,1.70
2006,05,03,05,25,1.70
2006,05,03,05,26,1.70
2006,05,03,05,27,1.60
2006,05,03,05,28,1.60
2006,05,03,05,29,1.60
2006,05,03,05,30,1.60
2006,05,03,05,31,1.60
2006,05,03,05,32,1.60
2006,05,03,05,33,1.60
2006,05,03,05,34,1.60
2006,05,03,05,35,1.60
2006,05,03,05,36,1.60
2006,05,03,05,37,1.50
2006,05,03,05,38,1.50
2006,05,03,05,39,1.50
2006,05,03,05,40,1.50
2006,05,03,05,41,1.50
2006,05,03,05,42,1.50
2006,05,03,05,43,1.50
2006,05,03,05,44,1.50
2006,05,03,05,45,1.50
2006,05,03,05,46,1.50
2006,05,03,05,47,1.50
2006,05,03,05,48,1.50
2006,05,03,05,49,1.50
2006,05,03,05,50,1.50
2006,05,03,05,51,1.50
2006,05,03,05,52,1.60
2006,05,03,05,53,1.50
2006,05,03,05,54,1.50
2006,05,03,05,55,1.50
2006,05,03,05,56,1.60
2006,05,03,05,57,1.60
2006,05,03,05,58,1.60
2006,05,03,05,59,1.60
2006,05,03,06,00,1.50
2006,05,03,06,01,1.50
2006,05,03,06,02,1.50
2006,05,03,06,03,1.50
2006,05,03,06,04,1.50
2006,05,03,06,05,1.50
2006,05,03,06,06,1.50
2006,05,03,06,07,1.50
2006,05,03,06,08,1.50
2006,05,03,06,09,1.50
2006,05,03,06,10,1.50
2006,05,03,06,11,1.50
2006,05,03,06,12,1.60
2006,05,03,06,13,1.60
2006,05,03,06,14,1.60
2006,05,03,06,15,1.60
2006,05,03,06,16,1.60
2006,05,03,06,17,1.70
2006,05,03,06,18,1.70
2006,05,03,06,19,1.80
2006,05,03,06,20,1.80
2006,05,03,06,21,1.80
2006,05,03,06,22,1.80
2006,05,03,06,23,1.80
2006,05,03,06,24,1.80
2006,05,03,06,25,1.80
2006,05,03,06,26,1.80
2006,05,03,06,27,1.80
2006,05,03,06,28,1.80
2006,05,03,06,29,1.80
2006,05,03,06,30,1.90
2006,05,03,06,31,1.90
2006,05,03,06,32,2.00
2006,05,03,06,33,2.00
2006,05,03,06,34,2.00
2006,05,03,06,35,2.10
2006,05,03,06,36,2.10
2006,05,03,06,37,2.20
2006,05,03,06,38,2.20
2006,05,03,06,39,2.20
2006,05,03,06,40,2.30
2006,05,03,06,41,2.40
2006,05,03,06,42,2.40
2006,05,03,06,43,2.50
2006,05,03,06,44,2.60
2006,05,03,06,45,2.60
2006,05,03,06,46,2.70
2006,05,03,06,47,2.70
2006,05,03,06,48,2.80
2006,05,03,06,49,2.80
2006,05,03,06,50,2.80
2006,05,03,06,51,2.80
2006,05,03,06,52,2.90
2006,05,03,06,53,2.90
2006,05,03,06,54,2.90
2006,05,03,06,55,3.00
2006,05,03,06,56,3.10
2006,05,03,06,57,3.10
2006,05,03,06,58,3.20
2006,05,03,06,59,3.30
2006,05,03,07,00,3.40
2006,05,03,07,01,3.50
2006,05,03,07,02,3.60
2006,05,03,07,03,3.70
2006,05,03,07,04,3.80
2006,05,03,07,05,4.00
2006,05,03,07,06,4.10
2006,05,03,07,07,4.20
2006,05,03,07,08,4.40
2006,05,03,07,09,4.50
2006,05,03,07,10,4.60
2006,05,03,07,11,4.70
2006,05,03,07,12,4.80
2006,05,03,07,13,4.90
2006,05,03,07,14,5.10
2006,05,03,07,15,5.20
2006,05,03,07,16,5.40
2006,05,03,07,17,5.60
2006,05,03,07,18,5.70
2006,05,03,07,19,5.70
2006,05,03,07,20,5.80
2006,05,03,07,21,5.90
2006,05,03,07,22,6.00
2006,05,03,07,23,6.10
2006,05,03,07,24,6.20
2006,05,03,07,25,6.20
2006,05,03,07,26,6.30
2006,05,03,07,27,6.40
2006,05,03,07,28,6.40
2006,05,03,07,29,6.50
2006,05,03,07,30,6.60
2006,05,03,07,31,6.60
2006,05,03,07,32,6.70
2006,05,03,07,33,6.70
2006,05,03,07,34,6.80
2006,05,03,07,35,6.80
2006,05,03,07,36,6.90
2006,05,03,07,37,6.90
2006,05,03,07,38,7.00
2006,05,03,07,39,7.00
2006,05,03,07,40,7.00
2006,05,03,07,41,7.00
2006,05,03,07,42,7.00
2006,05,03,07,43,7.00
2006,05,03,07,44,7.10
2006,05,03,07,45,7.10
2006,05,03,07,46,7.10
2006,05,03,07,47,7.10
2006,05,03,07,48,7.20
2006,05,03,07,49,7.20
2006,05,03,07,50,7.30
2006,05,03,07,51,7.40
2006,05,03,07,52,7.50
2006,05,03,07,53,7.60
2006,05,03,07,54,7.80
2006,05,03,07,55,7.90
2006,05,03,07,56,8.10
2006,05,03,07,57,8.20
2006,05,03,07,58,8.30
2006,05,03,07,59,8.40
2006,05,03,08,00,8.50
2006,05,03,08,01,8.70
2006,05,03,08,02,8.90
2006,05,03,08,03,9.00
2006,05,03,08,04,9.20
2006,05,03,08,05,9.30
2006,05,03,08,06,9.50
2006,05,03,08,07,9.60
2006,05,03,08,08,9.70
2006,05,03,08,09,9.90
2006,05,03,08,10,10.00
2006,05,03,08,11,10.20
2006,05,03,08,12,10.30
2006,05,03,08,13,10.40
2006,05,03,08,14,10.50
2006,05,03,08,15,10.60
2006,05,03,08,16,10.70
2006,05,03,08,17,10.80
2006,05,03,08,18,10.80
2006,05,03,08,19,11.00
2006,05,03,08,20,11.10
2006,05,03,08,21,11.10
2006,05,03,08,22,11.10
2006,05,03,08,23,11.20
2006,05,03,08,24,11.20
2006,05,03,08,25,11.30
2006,05,03,08,26,11.30
2006,05,03,08,27,11.30
2006,05,03,08,28,11.40
2006,05,03,08,29,11.40
2006,05,03,08,30,11.40
2006,05,03,08,31,11.50
2006,05,03,08,32,11.60
2006,05,03,08,33,11.60
2006,05,03,08,34,11.60
2006,05,03,08,35,11.60
2006,05,03,08,36,11.50
2006,05,03,08,37,11.40
2006,05,03,08,38,11.40
2006,05,03,08,39,11.40
2006,05,03,08,40,11.40
2006,05,03,08,41,11.40
2006,05,03,08,42,11.60
2006,05,03,08,43,11.50
2006,05,03,08,44,11.60
2006,05,03,08,45,11.60
2006,05,03,08,46,11.70
2006,05,03,08,47,11.80
2006,05,03,08,48,11.80
2006,05,03,08,49,11.80
2006,05,03,08,50,11.90
2006,05,03,08,51,11.90
2006,05,03,08,52,12.00
2006,05,03,08,53,12.00
2006,05,03,08,54,12.00
2006,05,03,08,55,11.90
2006,05,03,08,56,11.80
2006,05,03,08,57,11.80
2006,05,03,08,58,11.80
2006,05,03,08,59,12.00
2006,05,03,09,00,12.10
2006,05,03,09,01,12.10
2006,05,03,09,02,12.10
2006,05,03,09,03,12.10
2006,05,03,09,04,12.20
2006,05,03,09,05,12.20
2006,05,03,09,06,12.40
2006,05,03,09,07,12.50
2006,05,03,09,08,12.60
2006,05,03,09,09,12.60
2006,05,03,09,10,12.60
2006,05,03,09,11,12.50
2006,05,03,09,12,12.40
2006,05,03,09,13,12.50
2006,05,03,09,14,12.60
2006,05,03,09,15,12.60
2006,05,03,09,16,12.60
2006,05,03,09,17,12.70
2006,05,03,09,18,12.70
2006,05,03,09,19,12.80
2006,05,03,09,20,12.80
2006,05,03,09,21,12.80
2006,05,03,09,22,12.80
2006,05,03,09,23,12.80
2006,05,03,09,24,12.80
2006,05,03,09,25,12.70
2006,05,03,09,26,12.80
2006,05,03,09,27,12.90
2006,05,03,09,28,12.90
2006,05,03,09,29,12.90
2006,05,03,09,30,13.00
2006,05,03,09,31,13.00
2006,05,03,09,32,13.10
2006,05,03,09,33,13.20
2006,05,03,09,34,13.20
2006,05,03,09,35,13.20
2006,05,03,09,36,13.30
2006,05,03,09,37,13.30
2006,05,03,09,38,13.20
2006,05,03,09,39,13.30
2006,05,03,09,40,13.30
2006,05,03,09,41,13.20
2006,05,03,09,42,13.20
2006,05,03,09,43,13.20
2006,05,03,09,44,13.30
2006,05,03,09,45,13.30
2006,05,03,09,46,13.40
2006,05,03,09,47,13.50
2006,05,03,09,48,13.50
2006,05,03,09,49,13.60
2006,05,03,09,50,13.70
2006,05,03,09,51,13.70
2006,05,03,09,52,13.70
2006,05,03,09,53,13.70
2006,05,03,09,54,13.70
2006,05,03,09,55,13.70
2006,05,03,09,56,13.70
2006,05,03,09,57,13.70
2006,05,03,09,58,13.70
2006,05,03,09,59,13.70
2006,05,03,10,00,13.70
2006,05,03,10,01,13.60
2006,05,03,10,02,13.60
2006,05,03,10,03,13.70
2006,05,03,10,04,13.60
2006,05,03,10,05,13.60
2006,05,03,10,06,13.60
2006,05,03,10,07,13.60
2006,05,03,10,08,13.60
2006,05,03,10,09,13.50
2006,05,03,10,10,13.40
2006,05,03,10,11,13.40
2006,05,03,10,12,13.40
2006,05,03,10,13,13.50
2006,05,03,10,14,13.60
2006,05,03,10,15,13.70
2006,05,03,10,16,13.70
2006,05,03,10,17,13.60
2006,05,03,10,18,13.70
2006,05,03,10,19,13.70
2006,05,03,10,20,13.80
2006,05,03,10,21,13.70
2006,05,03,10,22,13.70
2006,05,03,10,23,13.80
2006,05,03,10,24,13.80
2006,05,03,10,25,13.90
2006,05,03,10,26,14.00
2006,05,03,10,27,14.00
2006,05,03,10,28,14.00
2006,05,03,10,29,14.00
2006,05,03,10,30,14.00
2006,05,03,10,31,13.90
2006,05,03,10,32,13.90
2006,05,03,10,33,13.90
2006,05,03,10,34,13.90
2006,05,03,10,35,13.90
2006,05,03,10,36,14.00
2006,05,03,10,37,14.10
2006,05,03,10,38,14.10
2006,05,03,10,39,14.20
2006,05,03,10,40,14.10
2006,05,03,10,41,14.00
2006,05,03,10,42,13.90
2006,05,03,10,43,14.00
2006,05,03,10,44,14.00
2006,05,03,10,45,14.00
2006,05,03,10,46,14.00
2006,05,03,10,47,14.00
2006,05,03,10,48,14.10
2006,05,03,10,49,14.00
2006,05,03,10,50,14.00
2006,05,03,10,51,14.00
2006,05,03,10,52,14.10
2006,05,03,10,53,14.20
2006,05,03,10,54,14.20
2006,05,03,10,55,14.20
2006,05,03,10,56,14.20
2006,05,03,10,57,14.20
2006,05,03,10,58,14.20
2006,05,03,10,59,14.20
2006,05,03,11,00,14.20
2006,05,03,11,01,14.20
2006,05,03,11,02,14.10
2006,05,03,11,03,14.00
2006,05,03,11,04,14.00
2006,05,03,11,05,13.90
2006,05,03,11,06,13.90
2006,05,03,11,07,13.90
2006,05,03,11,08,14.00
2006,05,03,11,09,14.00
2006,05,03,11,10,14.00
2006,05,03,11,11,13.90
2006,05,03,11,12,13.80
2006,05,03,11,13,13.70
2006,05,03,11,14,13.70
2006,05,03,11,15,13.70
2006,05,03,11,16,13.70
2006,05,03,11,17,13.80
2006,05,03,11,18,13.80
2006,05,03,11,19,13.80
2006,05,03,11,20,13.80
2006,05,03,11,21,13.80
2006,05,03,11,22,13.80
2006,05,03,11,23,13.80
2006,05,03,11,24,13.80
2006,05,03,11,25,13.90
2006,05,03,11,26,14.00
2006,05,03,11,27,14.00
2006,05,03,11,28,14.10
2006,05,03,11,29,14.20
2006,05,03,11,30,14.40
2006,05,03,11,31,14.50
2006,05,03,11,32,14.50
2006,05,03,11,33,14.40
2006,05,03,11,34,14.40
2006,05,03,11,35,14.50
2006,05,03,11,36,14.50
2006,05,03,11,37,14.50
2006,05,03,11,38,14.50
2006,05,03,11,39,14.60
2006,05,03,11,40,14.60
2006,05,03,11,41,14.60
2006,05,03,11,42,14.60
2006,05,03,11,43,14.60
2006,05,03,11,44,14.50
2006,05,03,11,45,14.60
2006,05,03,11,46,14.60
2006,05,03,11,47,14.70
2006,05,03,11,48,14.80
2006,05,03,11,49,14.80
2006,05,03,11,50,14.80
2006,05,03,11,51,14.80
2006,05,03,11,52,14.80
2006,05,03,11,53,14.80
2006,05,03,11,54,14.90
2006,05,03,11,55,15.10
2006,05,03,11,56,15.10
2006,05,03,11,57,15.10
2006,05,03,11,58,15.10
2006,05,03,11,59,15.20
2006,05,03,12,00,15.20
2006,05,03,12,01,15.20
2006,05,03,12,02,15.30
2006,05,03,12,03,15.30
2006,05,03,12,04,15.40
2006,05,03,12,05,15.40
2006,05,03,12,06,15.40
2006,05,03,12,07,15.40
2006,05,03,12,08,15.50
2006,05,03,12,09,15.60
2006,05,03,12,10,15.60
2006,05,03,12,11,15.60
2006,05,03,12,12,15.60
2006,05,03,12,13,15.60
2006,05,03,12,14,15.60
2006,05,03,12,15,15.60
2006,05,03,12,16,15.60
2006,05,03,12,17,15.70
2006,05,03,12,18,15.70
2006,05,03,12,19,15.60
2006,05,03,12,20,15.60
2006,05,03,12,21,15.60
2006,05,03,12,22,15.60
2006,05,03,12,23,15.80
2006,05,03,12,24,15.80
2006,05,03,12,25,15.90
2006,05,03,12,26,16.00
2006,05,03,12,27,16.10
2006,05,03,12,28,16.20
2006,05,03,12,29,16.30
2006,05,03,12,30,16.30
2006,05,03,12,31,16.20
2006,05,03,12,32,16.20
2006,05,03,12,33,16.10
2006,05,03,12,34,16.20
2006,05,03,12,35,16.20
2006,05,03,12,36,16.30
2006,05,03,12,37,16.40
2006,05,03,12,38,16.50
2006,05,03,12,39,16.40
2006,05,03,12,40,16.30
2006,05,03,12,41,16.30
2006,05,03,12,42,16.10
2006,05,03,12,43,15.90
2006,05,03,12,44,15.80
2006,05,03,12,45,15.80
2006,05,03,12,46,15.80
2006,05,03,12,47,16.10
2006,05,03,12,48,16.10
2006,05,03,12,49,16.10
2006,05,03,12,50,16.10
2006,05,03,12,51,16.10
2006,05,03,12,52,16.10
2006,05,03,12,53,16.20
2006,05,03,12,54,16.20
2006,05,03,12,55,16.20
2006,05,03,12,56,16.30
2006,05,03,12,57,16.30
2006,05,03,12,58,16.40
2006,05,03,12,59,16.40
2006,05,03,13,00,16.40
2006,05,03,13,01,16.40
2006,05,03,13,02,16.40
2006,05,03,13,03,16.40
2006,05,03,13,04,16.40
2006,05,03,13,05,16.40
2006,05,03,13,06,16.40
2006,05,03,13,07,16.40
2006,05,03,13,08,16.40
2006,05,03,13,09,16.50
2006,05,03,13,10,16.60
2006,05,03,13,11,16.70
2006,05,03,13,12,16.80
2006,05,03,13,13,16.90
2006,05,03,13,14,17.00
2006,05,03,13,15,16.90
2006,05,03,13,16,16.80
2006,05,03,13,17,16.70
2006,05,03,13,18,16.70
2006,05,03,13,19,16.70
2006,05,03,13,20,16.80
2006,05,03,13,21,16.80
2006,05,03,13,22,16.80
2006,05,03,13,23,16.70
2006,05,03,13,24,16.70
2006,05,03,13,25,16.70
2006,05,03,13,26,16.70
2006,05,03,13,27,16.70
2006,05,03,13,28,16.80
2006,05,03,13,29,16.80
2006,05,03,13,30,16.80
2006,05,03,13,31,16.90
2006,05,03,13,32,16.80
2006,05,03,13,33,16.70
2006,05,03,13,34,16.70
2006,05,03,13,35,16.70
2006,05,03,13,36,16.70
2006,05,03,13,37,16.70
2006,05,03,13,38,16.70
2006,05,03,13,39,16.70
2006,05,03,13,40,16.70
2006,05,03,13,41,16.80
2006,05,03,13,42,16.80
2006,05,03,13,43,16.70
2006,05,03,13,44,16.70
2006,05,03,13,45,16.80
2006,05,03,13,46,16.90
2006,05,03,13,47,17.00
2006,05,03,13,48,17.10
2006,05,03,13,49,17.10
2006,05,03,13,50,17.30
2006,05,03,13,51,17.30
2006,05,03,13,52,17.30
2006,05,03,13,53,17.30
2006,05,03,13,54,17.30
2006,05,03,13,55,17.20
2006,05,03,13,56,17.20
2006,05,03,13,57,17.20
2006,05,03,13,58,17.30
2006,05,03,13,59,17.30
2006,05,03,14,00,17.30
2006,05,03,14,01,17.30
2006,05,03,14,02,17.30
2006,05,03,14,03,17.30
2006,05,03,14,04,17.40
2006,05,03,14,05,17.40
2006,05,03,14,06,17.40
2006,05,03,14,07,17.30
2006,05,03,14,08,17.30
2006,05,03,14,09,17.30
2006,05,03,14,10,17.30
2006,05,03,14,11,17.30
2006,05,03,14,12,17.30
2006,05,03,14,13,17.40
2006,05,03,14,14,17.40
2006,05,03,14,15,17.40
2006,05,03,14,16,17.40
2006,05,03,14,17,17.30
2006,05,03,14,18,17.30
2006,05,03,14,19,17.30
2006,05,03,14,20,17.30
2006,05,03,14,21,17.30
2006,05,03,14,22,17.30
2006,05,03,14,23,17.30
2006,05,03,14,24,17.30
2006,05,03,14,25,17.30
2006,05,03,14,26,17.40
2006,05,03,14,27,17.50
2006,05,03,14,28,17.60
2006,05,03,14,29,17.70
2006,05,03,14,30,17.70
2006,05,03,14,31,17.70
2006,05,03,14,32,17.70
2006,05,03,14,33,17.80
2006,05,03,14,34,17.80
2006,05,03,14,35,17.80
2006,05,03,14,36,17.80
2006,05,03,14,37,17.80
2006,05,03,14,38,17.70
2006,05,03,14,39,17.80
2006,05,03,14,40,17.80
2006,05,03,14,41,17.70
2006,05,03,14,42,17.60
2006,05,03,14,43,17.60
2006,05,03,14,44,17.70
2006,05,03,14,45,17.80
2006,05,03,14,46,17.90
2006,05,03,14,47,17.90
2006,05,03,14,48,17.90
2006,05,03,14,49,18.00
2006,05,03,14,50,18.10
2006,05,03,14,51,18.20
2006,05,03,14,52,18.20
2006,05,03,14,53,18.20
2006,05,03,14,54,18.20
2006,05,03,14,55,18.20
2006,05,03,14,56,18.40
2006,05,03,14,57,18.50
2006,05,03,14,58,18.50
2006,05,03,14,59,18.50
2006,05,03,15,00,18.50
2006,05,03,15,01,18.50
2006,05,03,15,02,18.50
2006,05,03,15,03,18.50
2006,05,03,15,04,18.50
2006,05,03,15,05,18.40
2006,05,03,15,06,18.40
2006,05,03,15,07,18.40
2006,05,03,15,08,18.40
2006,05,03,15,09,18.40
2006,05,03,15,10,18.50
2006,05,03,15,11,18.60
2006,05,03,15,12,18.50
2006,05,03,15,13,18.50
2006,05,03,15,14,18.40
2006,05,03,15,15,18.40
2006,05,03,15,16,18.40
2006,05,03,15,17,18.40
2006,05,03,15,18,18.40
2006,05,03,15,19,18.40
2006,05,03,15,20,18.50
2006,05,03,15,21,18.50
2006,05,03,15,22,18.50
2006,05,03,15,23,18.50
2006,05,03,15,24,18.50
2006,05,03,15,25,18.60
2006,05,03,15,26,18.60
2006,05,03,15,27,18.60
2006,05,03,15,28,18.70
2006,05,03,15,29,18.60
2006,05,03,15,30,18.40
2006,05,03,15,31,18.30
2006,05,03,15,32,18.30
2006,05,03,15,33,18.40
2006,05,03,15,34,18.50
2006,05,03,15,35,18.50
2006,05,03,15,36,18.50
2006,05,03,15,37,18.50
2006,05,03,15,38,18.50
2006,05,03,15,39,18.50
2006,05,03,15,40,18.50
2006,05,03,15,41,18.50
2006,05,03,15,42,18.60
2006,05,03,15,43,18.60
2006,05,03,15,44,18.60
2006,05,03,15,45,18.60
2006,05,03,15,46,18.60
2006,05,03,15,47,18.60
2006,05,03,15,48,18.70
2006,05,03,15,49,18.70
2006,05,03,15,50,18.70
2006,05,03,15,51,18.80
2006,05,03,15,52,18.90
2006,05,03,15,53,18.90
2006,05,03,15,54,18.90
2006,05,03,15,55,18.80
2006,05,03,15,56,18.80
2006,05,03,15,57,18.90
2006,05,03,15,58,18.90
2006,05,03,15,59,18.90
2006,05,03,16,00,18.80
2006,05,03,16,01,18.60
2006,05,03,16,02,18.60
2006,05,03,16,03,18.70
2006,05,03,16,04,18.70
2006,05,03,16,05,18.90
2006,05,03,16,06,18.90
2006,05,03,16,07,18.70
2006,05,03,16,08,18.70
2006,05,03,16,09,18.70
2006,05,03,16,10,18.70
2006,05,03,16,11,18.80
2006,05,03,16,12,18.80
2006,05,03,16,13,18.80
2006,05,03,16,14,18.80
2006,05,03,16,15,18.70
2006,05,03,16,16,18.70
2006,05,03,16,17,18.70
2006,05,03,16,18,18.70
2006,05,03,16,19,18.80
2006,05,03,16,20,18.80
2006,05,03,16,21,18.70
2006,05,03,16,22,18.70
2006,05,03,16,23,18.70
2006,05,03,16,24,18.70
2006,05,03,16,25,18.70
2006,05,03,16,26,18.70
2006,05,03,16,27,18.60
2006,05,03,16,28,18.50
2006,05,03,16,29,18.50
2006,05,03,16,30,18.50
2006,05,03,16,31,18.70
2006,05,03,16,32,18.90
2006,05,03,16,33,19.00
2006,05,03,16,34,19.10
2006,05,03,16,35,19.10
2006,05,03,16,36,19.10
2006,05,03,16,37,19.10
2006,05,03,16,38,19.10
2006,05,03,16,39,19.10
2006,05,03,16,40,18.90
2006,05,03,16,41,18.90
2006,05,03,16,42,19.00
2006,05,03,16,43,19.10
2006,05,03,16,44,19.10
2006,05,03,16,45,19.10
2006,05,03,16,46,19.10
2006,05,03,16,47,19.10
2006,05,03,16,48,19.10
2006,05,03,16,49,19.10
2006,05,03,16,50,19.10
2006,05,03,16,51,18.90
2006,05,03,16,52,18.90
2006,05,03,16,53,18.90
2006,05,03,16,54,18.90
2006,05,03,16,55,18.90
2006,05,03,16,56,18.90
2006,05,03,16,57,18.90
2006,05,03,16,58,18.90
2006,05,03,16,59,19.00
2006,05,03,17,00,19.10
2006,05,03,17,01,19.00
2006,05,03,17,02,19.00
2006,05,03,17,03,18.90
2006,05,03,17,04,18.90
2006,05,03,17,05,19.00
2006,05,03,17,06,19.10
2006,05,03,17,07,19.10
2006,05,03,17,08,19.10
2006,05,03,17,09,19.10
2006,05,03,17,10,19.10
2006,05,03,17,11,19.10
2006,05,03,17,12,19.00
2006,05,03,17,13,18.90
2006,05,03,17,14,18.90
2006,05,03,17,15,19.00
2006,05,03,17,16,19.10
2006,05,03,17,17,19.00
2006,05,03,17,18,19.00
2006,05,03,17,19,19.10
2006,05,03,17,20,19.10
2006,05,03,17,21,19.10
2006,05,03,17,22,19.10
2006,05,03,17,23,19.10
2006,05,03,17,24,19.10
2006,05,03,17,25,19.10
2006,05,03,17,26,19.10
2006,05,03,17,27,19.10
2006,05,03,17,28,19.10
2006,05,03,17,29,19.10
2006,05,03,17,30,19.00
2006,05,03,17,31,18.90
2006,05,03,17,32,18.90
2006,05,03,17,33,18.90
2006,05,03,17,34,18.90
2006,05,03,17,35,18.90
2006,05,03,17,36,18.90
2006,05,03,17,37,18.90
2006,05,03,17,38,18.90
2006,05,03,17,39,18.90
2006,05,03,17,40,18.90